Location: Newark
(45.2500°N, 7.5833°E)
Time: 15:11:47
(UTC+00:00)

BEESAT 2 - Pass Details

Date: 27 February 2020
Orbit: 494 x 533 km, 64.9° (Epoch: 31 March)

Event Time Altitude Azimuth Distance (km) Brightness Sun altitude
Rises 20:31:08 0° 309° (NW) 2,687 ? -34.8°
Reaches altitude 10° 20:33:59 10° 288° (WNW) 1,789 ? -35.2°
Enters shadow 20:34:38 12° 280° (W) 1,639 ? -35.3°
